星链-35780(STARLINK-35780)

导读

STARLINK-35780是美国SpaceX公司星链(Starlink)卫星互联网星座的成员,于2025年12月8日发射,运行在近地轨道,是星链大规模组网计划的一部分。 该卫星承担全球宽带互联网接入服务,重点为传统网络基础设施缺失的偏远、乡村区域提供高速低延迟连接,下载速度可达50Mbps至100Mbps,延迟仅20-40毫秒,满足视频通话、在线游戏等需求,同时服务也延伸至海洋、空中移动场景,助力缩小全球数字鸿沟。

Basic Information
目录编号:
66974
目录名称:
STARLINK-35780
国际标识:
2025-288R
轨道中心:
EARTH
卫星名称:
星链-35780
卫星全名:
星链-35780(STARLINK-35780)
卫星状态:
在轨 (已飞行271 天)
发射日期:
2025-12-08 UTC
国别 :
美国 (US)
星等 :
--
Orbit Information
数据来源 国际轨道数据
星历时间: 2026-09-05T07:43:29+0800
19小时前
查看轨道信息
半长轴: 6861.149km
偏心率: 0.0001483
轨道倾角: 43.000°
近地点辐角 270.342°
升交点赤经 90.456°
平近点角 89.727°
近地点: 481.994km
远地点: 484.03km
周期: 94.266分钟
每日圈数: 15.275926
Detailed Information
固有亮度:
5
最大亮度:
2.5
卫星平台:
Starlink V1.0
覆盖范围:
全球
运营商:
太空探索技术公司
运营商所在国:
美国
制造商(研发单位):
太空探索技术公司
制造商所在国:
美国
使用方式:
暂无
Satellite Introduction
Starlink 计划是 SpaceX 推出的全球卫星互联网项目,通过发射低轨道卫星,为全球尤其是偏远地区提供高速、低延迟的互联网服务。自 2019 年起,Starlink 已部署数千颗卫星,旨在缩小全球数字鸿沟,推动互联网普及。该项目还为军事、航空等行业提供通信支持,带来广泛经济效益。
2D Orbit Map
3D Orbit Map
Orbit Altitude Analysis Chart
Orbit Inclination Analysis Chart
Orbit Comprehensive Analysis Chart
View Comprehensive Chart
Conjunction Data List
Event ID Objects TCA Miss Dist (km) Collision Risk Probability Collision Risk Index (CRI) Action
CDM_260907-105205-792306-697421
2026-09-07T
10:52:01+0000
0.216 km
中距离
5.082289E-4 高风险 0.89
CDM_260907-192905-792306-697421
2026-09-07T
19:29:52+0000
0.652 km
远距离
5.14728E-5 中风险 0.69
CDM_260903-155003-913306-697423
AIST 2 (39133)
2026-09-03T
15:50:48+0000
1.194 km
极远距离
1.068326E-5 中风险 0.56
CDM_260908-032005-320806-697421
2026-09-08T
03:20:11+0000
1.455 km
极远距离
6.851808E-6 低风险 0.52
CDM_260908-014505-320806-697421
2026-09-08T
01:45:56+0000
1.487 km
极远距离
6.385625E-6 低风险 0.51
CDM_260908-014105-824506-697421
2026-09-08T
01:41:44+0000
1.563 km
极远距离
3.836156E-6 低风险 0.47
CDM_260907-210405-792306-697421
2026-09-07T
21:04:01+0000
1.767 km
极远距离
2.011411E-6 低风险 0.41
CDM_260907-122605-792306-697421
2026-09-07T
12:26:11+0000
1.937 km
极远距离
1.58225E-6 低风险 0.39
CDM_260907-091705-792306-697422
2026-09-07T
09:17:52+0000
2.114 km
极远距离
1.290459E-6 低风险 0.37
CDM_260908-045405-320806-697421
2026-09-08T
04:54:26+0000
2.935 km
极远距离
1.286896E-6 低风险 0.37